Погода Душанбе

Погода Душанбе : погода сейчас, прогноз погоды и архив. Всё, что Вы хотите узнать о погоде Душанбе!

Поиск расширенной информации на нашем сайте:

Другие новости

Новости СМИ2

Главная страница сайта

Новости сайта

03.07.2017

Напоминаем, что на нашем специализированном сайте Метеоцентр.Азия вы можете получить высокодетализированные автоматические прогнозы погоды по пунктам России, СНГ и мира в авиационном формате (включающие направление и скорость ветра, видимость, явления погоды, количество и форму облачности, нижнюю и верхнюю границу облачности).

Рекомендуем: Самые интересные смотреть новые трейлеры онлайн абсолютно бесплатно

Погода Душанбе - сегодня

Время (UTC), дата Ветер
(°,м/с) 
Видим.   Явления Облачность Т
(°С)
Тd
(°С)
f(%) Тe
(°С)
Pmin
(гПа)
dP
(гПа)
Po
(мм)
O2
(г/м3)
Тmin Tmax R s Состояние
почвы
00 20.02.18 тихо ()   н/о    5/4 1000 м средняя, верхняя 
[Ac trans|Ci sp]
+8.9 -0.5 52 +9  1014.4  691  270           
03 20.02.18 тихо ()   н/о  {ливн. осадки}  10/10 600 м кучево-дожд. 
[Cb cap]
+0.7 +0.1 96 +1  1027.3  0.8  698  280           
06 20.02.18 тихо ()   1000 м  туман  8/4 1000 м средняя, верхняя 
[Sc|Ac trans|Ci fib]
+3.4 -1.3 71 +3  1022.1  1.4  695  277  -4.5         
09 20.02.18 270 (З) 14  20000 м    10/10 1000 м кучево-дожд. 
[Cb cap]
+9.6 +1.5 57 +6  1008.4  -4  687  267           
12 20.02.18 тихо ()   10 км  слаб. ливневой дождь  10/10 600 м кучево-дожд. 
[Cb cap]
+9.9 +3.6 65 +10  1010.1  1.8  689  267           
15 20.02.18 тихо ()   н/о  ливневой дождь  10/10 600 м кучево-дожд. 
[Cb cap]
+5.4 +3 84 +5  1016.3  4.1  692  273    +15.1     
18 20.02.18 тихо ()   н/о  слаб. ливневой снег  10/10 600 м кучево-дожд. 
[Cb cap]
+0.4 +0.4 100 1013.6  0.1  746  300    +6.6       
21 20.02.18 тихо ()   н/о  ливневой дождь  10/10 600 м кучево-дожд. 
[Cb cap]
+3.7 +3.2 97 +4  1020.7  2.7  695  275           
00 21.02.18 тихо ()   н/о  слаб. ливневой дождь  10/3 600 м верхняя 
[Frnb|Ci]
+2.3 +2.1 99 +2    1.1             
03 21.02.18 тихо ()   20000 м  {ливн. осадки}  10/8 600 м кучево-дожд., средняя, верхняя 
[Cb cap|Ac trans|Ci ing]
+4.4 +3.7 95 +4  1023.1  1.3  696  275  +2.1        сухая 
06 21.02.18 тихо ()   10 км    3/0 2000 м верхняя 
[Ci sp]
+10.5 +6.4 76 +11  1021.5  0.6  697  269  +2.1         
09 21.02.18 тихо ()   20000 м    4/0 верхняя 
[Ci sp]
+13.3 +5 57 +13  1018.5  -2  695  266           
12 21.02.18 тихо ()   20000 м    4/3 1000 м средняя, верхняя 
[Ac trans|Ci sp]
+14.2 +1.5 42 +14  1015.1  -2.9  693  265           
15 21.02.18 тихо ()   н/о    3/3 1000 м верхняя 
[Cu med, cong|Ci sp]
+9.1 +5.3 77 +9  1016.9  0.2  693  269    +15.1       
18 21.02.18 тихо ()   н/о    3/0 верхняя 
[Ci sp]
+6.1 +4.7 91 +6  1018.7  0.7  694  273    +15.1       
21 21.02.18 тихо ()   н/о    ясно 
+4.2 +4 99 +4  1019.2  -0.2  694  274           
00 22.02.18 тихо ()   н/о    ясно 
+3.2 +2.4 94 +3  1021  0.9  694  276           
03 22.02.18 тихо ()   20000 м    5/3 1500 м средняя, верхняя 
[Ac trans|Ci ing]
+2.5 +2.2 98 +3  1021.1  0.2  694  277  +2.1        влажная 
06 22.02.18 тихо ()   20000 м    6/3 1000 м средняя, верхняя 
[Ac trans|Ci ing]
+11.5 +2.9 55 +12  1015.3  -2.4  693  267  +2.1         
09 22.02.18 тихо ()   20000 м    5/3 1000 м верхняя 
[Sc|Ci ing]
+13.6 +2.3 46 +14  1015  0.3  693  265           
12 22.02.18 тихо ()   20000 м    6/4 1000 м средняя, верхняя 
[Sc|Ac trans|Ci ing]
+12.5 +2.1 49 +13  1015  0.5  693  267           
15 22.02.18 тихо ()   н/о    3/0 верхняя 
[Ci sp]
+12.1 +1.5 48 +12  1011.2  -4.5  690  266    +18.9       
18 22.02.18 тихо ()   н/о    ясно 
+7.9 +1.5 64 +8  1013.4  -0.7  690  270    +18.9       
00 23.02.18 тихо ()   н/о    5/3 1000 м верхняя 
[Sc|Ci sp]
+4.7 -0.7 68 +5  1013.8  -1.8  690  273           
03 23.02.18 тихо ()   20000 м    8/8 1000 м кучево-дожд. 
[Cb cap]
+8.6 -1.9 48 +9  1011.5  -0.9  689  269  +4.3        влажная 
Время (UTC), дата Ветер
(°,м/с) 
Видим.   Явления Облачность Т
(°С)
Тd
(°С)
f(%) Тe
(°С)
Pmin
(гПа)
dP
(гПа)
Po
(мм)
O2
(г/м3)
Тmin Tmax R s Состояние
почвы

Для получения пояснительной информации подведите курсор к названию столбца.

ПОГОДА Душанбе - архив

Всё, что Вы хотите узнать о погоде Душанбе - удобно и подробно!

Выберите нужную дату (начиная с 1 января 2015* года) и нажмите кнопку "Найти".
Будут отображены архивные сводки погоды по пункту Душанбе, начиная с указанной даты.


Отображать данные в формате CSV (для использования в таблицах Excel)


Внимание! Наш архив погоды предназначен исключительно для личного некоммерческого использования в познавательных целях. Если Вам необходимы официальные справки о состоянии погоды (для производственных, юридических, коммерческих и т.п. целей), обращайтесь в органы Росгидромета.

*Примечание: данная дата относится к архиву по метеостанциям СССР (Россия, СНГ, Балтия).
Архив по метеостанциям Зарубежной Европы и Азии (кроме Китая) хранится 10 дней, по другим регионам земного шара (Китай, Африка, Америка, Австралия, Океания) - 1 день.

Душанбе - район местоположения метеостанции


Название, широта, долгота, высота метеостанции:
Душанбе 38.6°ш. 68.8°д. 800 м над ур. моря [Таджикистан]

Дополнительная информация

В oтличие oт бoльшинства пoгoдных сайтoв мы публикуем пoдрoбную метеoинфoрмацию в детальнoм прoфессиoнальнoм фoрмате.

Характеристики температуры и влажнoсти вoздуха измеряются на высoте 2 м в тени вдали oт зданий и деревьев.
Скoрoсть ветра измеряется на высoте 10 м (на урoвне рoста челoвека скoрoсть ветра ниже в 1.5-2 раза). Если метеoстанция нахoдится в гoрoде или в лесу, тo скoрoсть ветра занижена на 2-4 м/с пo сравнению с oткрытым местoм. Скoрoсть ветра над акватoриями крупных рек и oзёр, а также на вершинах хoлмoв на 2-5 м/с выше, чем в oбычных услoвиях.
Атмoсфернoе давление в разных тoчках местнoсти мoжет значительнo oтличаться oт давления на метеoстанции, в зависимoсти oт услoвий рельефа (при пoдъёме на 10 м давление пoнижается примернo на 1 мм рт.ст.).